TimeEST,TemperatureF,Dew PointF,Humidity,Sea Level PressureIn,VisibilityMPH,Wind Direction,Wind SpeedMPH,Gust SpeedMPH,PrecipitationIn,Events,Conditions,WindDirDegrees,DateUTC
12:54 AM,37.9,25.0,60,30.53,10.0,NE,4.6,-,N/A,,Clear,40,2013-01-11 05:54:00
1:54 AM,36.0,25.0,64,30.52,10.0,NE,5.8,-,N/A,,Clear,50,2013-01-11 06:54:00
2:54 AM,37.0,26.1,65,30.51,10.0,ENE,4.6,-,N/A,,Clear,70,2013-01-11 07:54:00
3:54 AM,37.0,26.1,65,30.49,10.0,Calm,Calm,-,N/A,,Clear,0,2013-01-11 08:54:00
4:54 AM,34.0,25.0,70,30.49,10.0,ENE,3.5,-,N/A,,Clear,60,2013-01-11 09:54:00
5:54 AM,34.0,25.0,70,30.48,10.0,Calm,Calm,-,N/A,,Clear,0,2013-01-11 10:54:00
6:54 AM,35.6,26.6,70,30.49,10.0,Calm,Calm,-,N/A,,Clear,0,2013-01-11 11:54:00
7:54 AM,34.0,27.0,75,30.47,10.0,Calm,Calm,-,N/A,,Mostly Cloudy,0,2013-01-11 12:54:00
8:54 AM,37.9,28.0,68,30.48,10.0,NNE,3.5,-,N/A,,Overcast,20,2013-01-11 13:54:00
9:54 AM,41.0,30.0,65,30.44,10.0,ENE,5.8,-,N/A,,Partly Cloudy,70,2013-01-11 14:54:00
10:54 AM,42.1,32.0,67,30.41,10.0,ESE,6.9,-,N/A,,Mostly Cloudy,110,2013-01-11 15:54:00
11:54 AM,43.0,33.1,68,30.36,10.0,East,4.6,-,0.00,,Overcast,100,2013-01-11 16:54:00
12:54 PM,45.0,34.0,65,30.34,10.0,SE,4.6,-,N/A,,Overcast,130,2013-01-11 17:54:00
1:54 PM,44.1,37.9,79,30.30,10.0,ESE,6.9,-,0.02,,Overcast,110,2013-01-11 18:54:00
2:54 PM,46.0,39.9,79,30.27,10.0,East,5.8,-,0.00,,Overcast,90,2013-01-11 19:54:00
3:54 PM,46.9,39.9,77,30.26,10.0,ESE,4.6,-,N/A,,Overcast,120,2013-01-11 20:54:00
4:54 PM,46.0,43.0,89,30.23,10.0,ESE,5.8,-,0.02,Rain,Light Rain,120,2013-01-11 21:54:00
5:54 PM,45.0,44.1,97,30.17,8.0,SE,9.2,-,0.03,Rain,Light Rain,130,2013-01-11 22:54:00
6:46 PM,46.4,44.6,93,30.17,4.0,ESE,3.5,-,0.10,Rain,Rain,110,2013-01-11 23:46:00
6:54 PM,46.0,44.1,93,30.17,5.0,Calm,Calm,-,0.11,Rain,Light Rain,0,2013-01-11 23:54:00
7:19 PM,46.4,44.6,93,30.18,2.5,NNW,6.9,-,0.06,Rain,Rain,340,2013-01-12 00:19:00
7:43 PM,46.4,44.6,93,30.17,3.0,North,5.8,-,0.11,Rain,Light Rain,10,2013-01-12 00:43:00
7:54 PM,46.0,45.0,96,30.17,3.0,NE,5.8,-,0.12,Rain,Light Rain,50,2013-01-12 00:54:00
8:17 PM,46.4,44.6,93,30.16,2.5,NE,5.8,-,0.02,Rain,Light Rain,40,2013-01-12 01:17:00
8:24 PM,44.6,44.6,100,30.15,2.5,NE,5.8,-,0.03,Rain,Light Rain,50,2013-01-12 01:24:00
8:39 PM,44.6,44.6,100,30.15,3.0,NE,4.6,-,0.03,Rain,Light Rain,50,2013-01-12 01:39:00
8:48 PM,44.6,44.6,100,30.15,2.5,NE,4.6,-,0.07,Rain,Rain,50,2013-01-12 01:48:00
8:49 PM,45.0,44.1,97,30.15,2.5,NE,4.6,-,0.07,Rain,Rain,50,2013-01-12 01:49:00
8:59 PM,44.6,44.6,100,30.14,3.0,ENE,3.5,-,0.02,Rain,Light Rain,60,2013-01-12 01:59:00
9:07 PM,44.6,44.6,100,30.13,4.0,East,4.6,-,0.02,Rain,Light Rain,80,2013-01-12 02:07:00
9:54 PM,46.4,44.6,93,30.12,5.0,East,5.8,-,N/A,,Overcast,80,2013-01-12 02:54:00
10:54 PM,46.0,45.0,96,30.11,4.0,Calm,Calm,-,0.00,,Overcast,0,2013-01-12 03:54:00
11:54 PM,46.0,45.0,96,30.10,4.0,Calm,Calm,-,0.00,,Overcast,0,2013-01-12 04:54:00